Ephrata, WA
on Tuesday, December 11, 2012

Tuesday
Previous Day Next Day
Daily Summary
 ActualAverageRecord
Temperature
Mean Temperature °F 28°F  
Max Temperature 35°F 34°F 53°F (2004)
Min Temperature 29°F 22°F -2°F (1963)
Degree Days
Heating Degree Days 33 37  
Month to date heating degree days 298 395  
Since 1 July heating degree days 1558 1814  
Cooling Degree Days 0 0  
Month to date cooling degree days 0 0  
Year to date cooling degree days 837 772  
Moisture
Dew Point 30°F   
Average Humidity 95    
Maximum Humidity 100    
Minimum Humidity 89    
Precipitation
Precipitation 0.12 in 0.04 in 0.61 in (1969)
Month to date precipitation 0.68 0.45  
Year to date precipitation 7.63 7.06  
Wind
Wind Speed 5 mph   
Max Wind Speed 10 mph   
Max Gust Speed 12 mph   
Visibility 5 miles   
Events Fog , Rain , Snow   

Key: T is trace of precipitation, MM is missing value
Source: NWS Daily Summary
Time(PST)TemperatureDew PointHumidity Pressure Visibility Wind DirectionWind SpeedGust SpeedPrecipitationEvents Conditions
12:13 AM 28.4°F 28.4°F 100% 29.98 in 3.0 miles NE 4.6 mph - N/A   Overcast
12:53 AM 28.9°F 28.0°F 96% 30.01 in 5.0 miles North 3.5 mph - N/A   Overcast
1:53 AM 28.9°F 28.0°F 96% 29.98 in 10.0 miles Calm Calm - N/A   Overcast
2:36 AM 28.4°F 28.4°F 100% 29.90 in 1.8 miles NE 3.5 mph - N/A   Overcast
2:46 AM 28.4°F 28.4°F 100% 29.90 in 0.5 miles East 3.5 mph - N/A Fog Light Freezing Fog
2:53 AM 28.9°F 28.0°F 96% 29.93 in 0.5 miles ESE 3.5 mph - N/A Fog Light Freezing Fog
3:08 AM 28.4°F 28.4°F 100% 29.88 in 0.2 miles NNE 3.5 mph - N/A Fog Light Freezing Fog
3:20 AM 28.4°F 28.4°F 100% 29.88 in 0.5 miles North 6.9 mph - N/A Fog Light Freezing Fog
3:46 AM 28.4°F 28.4°F 100% 29.86 in 1.2 miles NNE 5.8 mph - N/A   Overcast
3:53 AM 28.9°F 28.0°F 96% 29.90 in 1.5 miles NNE 4.6 mph - N/A   Overcast
4:06 AM 28.4°F 28.4°F 100% 29.85 in 0.8 miles North 5.8 mph - N/A   Mist
4:53 AM 28.9°F 28.0°F 96% 29.86 in 0.8 miles NNE 5.8 mph - N/A   Mist
5:10 AM 28.4°F 28.4°F 100% 29.81 in 1.0 miles NNE 6.9 mph - N/A   Mist
5:17 AM 28.4°F 28.4°F 100% 29.80 in 0.5 miles North 10.4 mph - N/A Fog Light Freezing Fog
5:34 AM 28.4°F 28.4°F 100% 29.80 in 1.2 miles NNE 8.1 mph - N/A   Overcast
5:48 AM 28.4°F 28.4°F 100% 29.80 in 3.0 miles North 8.1 mph - N/A   Overcast
5:53 AM 28.9°F 28.0°F 96% 29.84 in 6.0 miles NNE 6.9 mph - N/A   Overcast
6:53 AM 30.0°F 28.0°F 92% 29.81 in 8.0 miles NNE 5.8 mph - N/A   Overcast
7:53 AM 28.9°F 28.9°F 100% 29.78 in 7.0 miles Calm Calm - N/A   Mostly Cloudy
8:26 AM 30.2°F 28.4°F 93% 29.72 in 1.8 miles North 3.5 mph - N/A   Overcast
8:35 AM 30.2°F 28.4°F 93% 29.72 in 2.5 miles North 5.8 mph - N/A   Overcast
8:53 AM 30.0°F 28.9°F 96% 29.75 in 3.0 miles NNE 4.6 mph - N/A   Overcast
9:49 AM 30.2°F 28.4°F 93% 29.69 in 9.0 miles North 6.9 mph - N/A   Scattered Clouds
9:53 AM 30.0°F 28.9°F 96% 29.73 in 9.0 miles North 8.1 mph - N/A   Scattered Clouds
10:53 AM 30.9°F 28.9°F 92% 29.72 in 10.0 miles North 6.9 mph - N/A   Mostly Cloudy
11:53 AM 32.0°F 30.0°F 92% 29.68 in 8.0 miles North 6.9 mph - N/A   Overcast
12:53 PM 32.0°F 30.9°F 96% 29.64 in 9.0 miles NNE 6.9 mph - N/A   Overcast
1:53 PM 33.1°F 30.9°F 92% 29.62 in 10.0 miles North 5.8 mph - N/A   Overcast
2:53 PM 34.0°F 30.9°F 89% 29.60 in 10.0 miles North 4.6 mph - N/A   Mostly Cloudy
3:53 PM 34.0°F 30.9°F 89% 29.60 in 10.0 miles North 5.8 mph - N/A   Mostly Cloudy
4:53 PM 34.0°F 32.0°F 92% 29.60 in 9.0 miles North 4.6 mph - N/A   Overcast
5:53 PM 34.0°F 30.9°F 89% 29.58 in 10.0 miles North 6.9 mph - 0.00 in   Overcast
6:53 PM 35.1°F 32.0°F 89% 29.60 in 10.0 miles North 5.8 mph - 0.00 in Rain Light Rain
7:53 PM 34.0°F 32.0°F 92% 29.60 in 9.0 miles North 5.8 mph - 0.00 in Snow Light Snow
8:10 PM 33.8°F 32.0°F 93% 29.56 in 7.0 miles North 4.6 mph - 0.01 in Rain Light Rain
8:53 PM 33.1°F 32.0°F 96% 29.60 in 3.0 miles North 3.5 mph - 0.09 in Snow Light Snow
9:35 PM 33.8°F 30.2°F 87% 29.55 in 6.0 miles North 4.6 mph - 0.03 in Rain Light Rain
9:45 PM 33.8°F 30.2°F 87% 29.56 in 6.0 miles North 5.8 mph - 0.03 in   Overcast
9:53 PM 33.1°F 30.9°F 92% 29.59 in 6.0 miles NNE 5.8 mph - 0.03 in   Overcast
10:53 PM 33.1°F 32.0°F 96% 29.60 in 7.0 miles NNW 3.5 mph - N/A   Overcast
11:19 PM 33.8°F 32.0°F 93% 29.57 in 10.0 miles West 3.5 mph - N/A   Overcast
11:53 PM 34.0°F 32.0°F 92% 29.61 in 9.0 miles Calm Calm - N/A   Overcast
Moon Phase
Dec. 11 Dec. 13 Dec. 20 Dec. 28 Jan. 04
Sunrise:07:35 AM (PST) Moon Rise:05:32 AM (PST)12/11
Sunset:04:07 PM (PST) Moon Set:02:54 PM (PST)12/11

Copyright © 2014 The Weather Underground, Inc.